Date String (YYYY-MM-DD hh:mm:ss) UTC,Instrument flags,absolute air pressure of the measurement (hPa),sample flow rate (lpm),inlet stack bypass flow (lpm),air temperature of the measurement (°C),ambient temperature measured by the external sensor (°C),aerosol sample conditioner tube jacket temperature (°C),OPC LED temperature (°C),internal box temperature (°C),relative humidity of the measurement (%),span deviation,mass concentration of particles derived from Lorenz-Mie calculation of OPC scattering (μg/m³),mass concentration of particles derived from Lorenz-Mie calculation of OPC scattering (μg/m³),mass concentration of particles derived from Lorenz-Mie calculation of OPC scattering (μg/m³)
DateTimeUTC,F1_M11,P_M11,Q1_M11,Q2_M11,T1_M11,T2_M11,T3_M11,T4_M11,T5_M11,U1_M11,ZSPAN_M11,X2_M11,X0_M11,X1_M11
2023-12-03 04:00:00,SystemResetWarning,0818.7,5.00,000.00,018.7,017.4,000.0,027.2,020.0,10.4,0000.0,0000.96,0003.76,0000.61
2023-12-03 04:01:00,SystemResetWarning,0818.7,5.01,000.00,018.7,017.4,000.0,027.2,020.0,10.5,0000.0,0000.96,0003.44,0000.60
2023-12-03 04:02:00,SystemResetWarning,0818.5,5.01,000.00,018.7,017.4,000.0,027.2,020.0,10.5,0000.0,0000.94,0005.72,0000.61
2023-12-03 04:03:00,SystemResetWarning,0818.6,5.01,000.00,018.7,017.3,000.0,027.2,020.0,10.6,0000.0,0000.94,0006.29,0000.61
2023-12-03 04:04:00,SystemResetWarning,0818.4,5.00,000.00,018.7,017.3,000.0,027.2,020.0,10.4,0000.0,0000.96,0006.43,0000.61
2023-12-03 04:05:00,SystemResetWarning,0818.3,5.00,000.00,018.7,017.3,000.0,027.2,020.0,10.5,0000.0,0000.98,0006.41,0000.60
2023-12-03 04:06:00,SystemResetWarning,0818.3,5.00,000.00,018.7,017.3,000.0,027.2,020.0,10.5,0000.0,0001.00,0006.74,0000.58
2023-12-03 04:07:00,SystemResetWarning,0818.5,5.00,000.00,018.7,017.2,000.0,027.2,020.0,10.5,0000.0,0001.01,0006.87,0000.55
2023-12-03 04:08:00,SystemResetWarning,0818.5,5.00,000.00,018.7,017.3,000.0,027.2,020.0,10.4,0000.0,0001.00,0007.82,0000.53
2023-12-03 04:09:00,SystemResetWarning,0818.7,5.00,000.00,018.7,017.3,000.0,027.2,020.0,10.2,0000.0,0000.99,0008.06,0000.51
2023-12-03 04:10:00,SystemResetWarning,0818.7,4.99,000.00,018.6,017.3,000.0,027.2,020.0,10.3,0000.0,0001.03,0008.16,0000.49
2023-12-03 04:11:00,SystemResetWarning,0818.6,5.01,000.00,018.6,017.3,000.0,027.2,020.0,10.3,0000.0,0001.01,0008.15,0000.48
2023-12-03 04:12:00,SystemResetWarning,0818.6,5.00,000.00,018.6,017.3,000.0,027.2,020.0,10.3,0000.0,0001.03,0007.88,0000.47
2023-12-03 04:13:00,SystemResetWarning,0818.2,5.00,000.00,018.6,017.3,000.0,027.2,020.0,10.2,0000.0,0001.04,0007.26,0000.46
2023-12-03 04:14:00,SystemResetWarning,0818.3,5.00,000.00,018.6,017.3,000.0,027.2,020.0,10.6,0000.0,0001.05,0007.19,0000.46
2023-12-03 04:15:00,SystemResetWarning,0818.5,5.00,000.00,018.6,017.3,000.0,027.2,020.0,10.3,0000.0,0001.08,0007.11,0000.46
2023-12-03 04:16:00,SystemResetWarning,0818.6,5.00,000.00,018.6,017.3,000.0,027.2,020.0,10.2,0000.0,0001.05,0006.84,0000.45
2023-12-03 04:17:00,SystemResetWarning,0818.6,5.00,000.00,018.6,017.3,000.0,027.2,020.1,10.5,0000.0,0001.00,0006.36,0000.46
2023-12-03 04:18:00,SystemResetWarning,0818.6,5.00,000.00,018.7,017.5,000.0,027.1,020.4,10.6,0000.0,0000.99,0006.78,0000.46
2023-12-03 04:19:00,SystemResetWarning,0818.9,5.01,000.00,018.8,018.3,000.0,027.1,020.8,10.3,0000.0,0001.00,0006.92,0000.45
2023-12-03 04:20:00,SystemResetWarning,0818.5,4.99,000.00,018.8,018.5,000.0,027.1,020.4,10.3,0000.0,0000.97,0006.41,0000.45
2023-12-03 04:21:00,SystemResetWarning,0818.2,4.99,000.00,018.8,018.4,000.0,027.1,020.1,10.6,0000.0,0000.91,0006.49,0000.45
2023-12-03 04:22:00,SystemResetWarning,0818.4,5.01,000.00,018.8,018.2,000.0,027.1,020.0,10.7,0000.0,0000.87,0006.50,0000.44
2023-12-03 04:23:00,SystemResetWarning,0818.3,5.01,000.00,018.7,018.0,000.0,027.1,020.0,10.6,0000.0,0000.87,0006.81,0000.44
2023-12-03 04:24:00,SystemResetWarning,0818.3,5.00,000.00,018.7,017.9,000.0,027.2,020.0,10.6,0000.0,0000.87,0006.09,0000.44
2023-12-03 04:25:00,SystemResetWarning,0818.5,5.00,000.00,018.7,017.8,000.0,027.2,020.0,10.7,0000.0,0000.88,0005.35,0000.44
2023-12-03 04:26:00,SystemResetWarning,0818.3,5.00,000.00,018.7,017.7,000.0,027.2,020.0,10.8,0000.0,0000.81,0005.29,0000.43
2023-12-03 04:27:00,SystemResetWarning,0818.4,5.00,000.00,018.7,017.6,000.0,027.2,020.0,10.9,0000.0,0000.81,0007.62,0000.43
2023-12-03 04:28:00,SystemResetWarning,0818.2,5.00,000.00,018.7,017.6,000.0,027.2,020.0,10.9,0000.0,0000.83,0007.75,0000.43
2023-12-03 04:29:00,SystemResetWarning,0818.2,5.01,000.00,018.7,017.5,000.0,027.2,020.0,10.8,0000.0,0000.87,0008.21,0000.43
2023-12-03 04:30:00,SystemResetWarning,0818.2,4.98,000.00,018.7,017.4,000.0,027.2,020.0,10.9,0000.0,0000.94,0007.89,0000.44
2023-12-03 04:31:00,SystemResetWarning,0818.2,5.00,000.00,018.7,017.4,000.0,027.2,020.0,10.9,0000.0,0000.98,0007.96,0000.44
2023-12-03 04:32:00,SystemResetWarning,0818.3,5.01,000.00,018.7,017.3,000.0,027.2,020.0,10.9,0000.0,0001.01,0008.44,0000.45
2023-12-03 04:33:00,SystemResetWarning,0818.2,5.01,000.00,018.7,017.2,000.0,027.2,020.0,10.9,0000.0,0001.08,0009.23,0000.45
2023-12-03 04:34:00,SystemResetWarning,0818.2,5.00,000.00,018.6,017.2,000.0,027.2,020.0,11.0,0000.0,0001.11,0009.50,0000.45
2023-12-03 04:35:00,SystemResetWarning,0818.1,4.99,000.00,018.6,017.2,000.0,027.2,020.0,11.0,0000.0,0001.11,0009.63,0000.46
2023-12-03 04:36:00,SystemResetWarning,0818.1,4.99,000.00,018.6,017.2,000.0,027.2,020.0,11.1,0000.0,0001.24,0011.31,0000.45
2023-12-03 04:37:00,SystemResetWarning,0818.1,5.01,000.00,018.6,017.3,000.0,027.2,020.2,11.2,0000.0,0001.33,0011.54,0000.46
2023-12-03 04:38:00,SystemResetWarning,0818.0,5.01,000.00,018.8,018.0,000.0,027.1,020.6,11.3,0000.0,0001.38,0010.53,0000.47
2023-12-03 04:39:00,SystemResetWarning,0818.0,5.00,000.00,018.9,018.9,000.0,027.1,020.9,11.3,0000.0,0001.45,0011.08,0000.47
2023-12-03 04:40:00,SystemResetWarning,0817.9,4.99,000.00,018.9,018.9,000.0,027.1,020.5,11.5,0000.0,0001.42,0010.20,0000.46
2023-12-03 04:41:00,SystemResetWarning,0817.9,4.99,000.00,018.9,018.7,000.0,027.1,020.2,11.5,0000.0,0001.38,0010.12,0000.45
2023-12-03 04:42:00,SystemResetWarning,0817.9,5.00,000.00,018.8,018.5,000.0,027.1,020.0,11.6,0000.0,0001.45,0010.37,0000.46
2023-12-03 04:43:00,SystemResetWarning,0817.7,5.00,000.00,018.8,018.3,000.0,027.2,020.0,11.6,0000.0,0001.47,0009.77,0000.45
2023-12-03 04:44:00,SystemResetWarning,0817.4,5.01,000.00,018.8,018.1,000.0,027.2,020.0,11.4,0000.0,0001.41,0009.06,0000.45
2023-12-03 04:45:00,SystemResetWarning,0817.5,5.00,000.00,018.8,018.0,000.0,027.2,020.0,11.4,0000.0,0001.41,0009.29,0000.45
2023-12-03 04:46:00,SystemResetWarning,0817.5,5.00,000.00,018.8,017.9,000.0,027.2,020.0,11.4,0000.0,0001.44,0009.26,0000.45
2023-12-03 04:47:00,SystemResetWarning,0817.6,5.00,000.00,018.8,017.7,000.0,027.2,020.0,11.6,0000.0,0001.33,0008.48,0000.45
2023-12-03 04:48:00,SystemResetWarning,0817.6,5.00,000.00,018.8,017.6,000.0,027.2,020.0,11.7,0000.0,0001.24,0008.22,0000.45
2023-12-03 04:49:00,SystemResetWarning,0817.0,4.99,000.00,018.7,017.5,000.0,027.2,020.0,11.7,0000.0,0001.23,0008.06,0000.44
2023-12-03 04:50:00,SystemResetWarning,0816.9,4.99,000.00,018.7,017.5,000.0,027.2,020.0,11.7,0000.0,0001.16,0007.47,0000.44
2023-12-03 04:51:00,SystemResetWarning,0817.2,5.01,000.00,018.7,017.5,000.0,027.2,020.0,11.8,0000.0,0001.17,0007.95,0000.44
2023-12-03 04:52:00,SystemResetWarning,0817.0,5.00,000.00,018.7,017.4,000.0,027.2,020.0,11.9,0000.0,0001.18,0008.74,0000.45
2023-12-03 04:53:00,SystemResetWarning,0817.0,5.00,000.00,018.7,017.3,000.0,027.2,020.0,11.8,0000.0,0001.16,0009.06,0000.46
2023-12-03 04:54:00,SystemResetWarning,0817.0,5.00,000.00,018.7,017.3,000.0,027.2,020.2,12.0,0000.0,0001.14,0009.60,0000.47
2023-12-03 04:55:00,SystemResetWarning,0817.0,5.00,000.00,018.8,018.1,000.0,027.2,020.7,12.0,0000.0,0001.17,0010.14,0000.47
2023-12-03 04:56:00,SystemResetWarning,0817.0,4.99,000.00,019.0,019.0,000.0,027.2,021.0,11.9,0000.0,0001.19,0009.68,0000.47
2023-12-03 04:57:00,SystemResetWarning,0816.9,4.99,000.00,019.0,019.0,000.0,027.2,020.7,11.8,0000.0,0001.19,0010.46,0000.47
2023-12-03 04:58:00,SystemResetWarning,0817.0,5.00,000.00,019.0,018.8,000.0,027.2,020.2,11.7,0000.0,0001.29,0012.56,0000.48
2023-12-03 04:59:00,SystemResetWarning,0817.0,5.02,000.00,018.9,018.6,000.0,027.2,020.0,11.9,0000.0,0001.48,0014.24,0000.49
